Time,TemperatureF,DewpointF,PressureIn,WindDirection,WindDirectionDegrees,WindSpeedMPH,WindSpeedGustMPH,Humidity,HourlyPrecipIn,Conditions,Clouds,dailyrainin,SoftwareType,DateUTC
2013-07-14 00:00:00,66.7,64.3,30.27,South,180,0.0,0.0,92,0.00,,BKN027,0.00,VWS V14.01,2013-07-14 04:00:00,
2013-07-14 00:01:00,66.7,64.3,30.27,South,180,0.0,0.0,92,0.00,,BKN027,0.00,VWS V14.01,2013-07-14 04:01:00,
2013-07-14 00:06:00,66.7,64.3,30.27,NW,315,0.0,0.0,92,0.00,,BKN027,0.00,VWS V14.01,2013-07-14 04:06:00,
2013-07-14 00:11:00,66.6,64.2,30.27,NW,315,0.0,0.0,92,0.00,,BKN027,0.00,VWS V14.01,2013-07-14 04:11:00,
2013-07-14 00:16:00,66.6,64.2,30.24,NW,315,0.0,0.0,92,0.00,,BKN027,0.00,VWS V14.01,2013-07-14 04:16:00,
2013-07-14 00:21:00,66.7,64.7,30.24,NW,315,0.0,0.0,93,0.00,,BKN027,0.00,VWS V14.01,2013-07-14 04:21:00,
2013-07-14 00:26:00,66.7,64.7,30.24,NW,315,0.0,0.0,93,0.00,,BKN027,0.00,VWS V14.01,2013-07-14 04:26:00,
2013-07-14 00:31:00,66.6,64.2,30.24,West,270,0.0,0.0,92,0.00,,BKN027,0.00,VWS V14.01,2013-07-14 04:31:00,
2013-07-14 00:36:00,66.7,64.7,30.24,WSW,248,0.0,0.0,93,0.00,,BKN027,0.00,VWS V14.01,2013-07-14 04:36:00,
2013-07-14 00:41:00,66.7,65.0,30.24,ESE,112,0.0,0.0,94,0.00,,BKN027,0.00,VWS V14.01,2013-07-14 04:41:00,
2013-07-14 00:46:00,66.7,65.0,30.27,North,0,0.0,0.0,94,0.00,,BKN027,0.00,VWS V14.01,2013-07-14 04:46:00,
2013-07-14 00:51:00,66.7,65.0,30.27,North,0,0.0,0.0,94,0.00,,BKN027,0.00,VWS V14.01,2013-07-14 04:51:00,
2013-07-14 00:56:00,66.7,65.0,30.27,North,0,0.0,0.0,94,0.00,,BKN027,0.00,VWS V14.01,2013-07-14 04:56:00,
2013-07-14 01:01:00,66.7,65.0,30.27,South,180,0.0,0.0,94,0.00,,BKN027,0.00,VWS V14.01,2013-07-14 05:01:00,
2013-07-14 01:06:00,66.9,65.1,30.27,South,180,0.0,0.0,94,0.00,,BKN027,0.00,VWS V14.01,2013-07-14 05:06:00,
2013-07-14 01:11:00,67.1,65.3,30.27,South,180,0.0,0.0,94,0.00,,BKN027,0.00,VWS V14.01,2013-07-14 05:11:00,
2013-07-14 01:16:00,67.1,65.3,30.24,SSW,202,0.0,0.0,94,0.00,,BKN027,0.00,VWS V14.01,2013-07-14 05:16:00,
2013-07-14 01:21:00,67.1,65.3,30.24,SSW,202,0.0,0.0,94,0.00,,BKN027,0.00,VWS V14.01,2013-07-14 05:21:00,
2013-07-14 01:26:00,66.9,65.1,30.24,SSW,202,0.0,0.0,94,0.00,,BKN027,0.00,VWS V14.01,2013-07-14 05:26:00,
2013-07-14 01:31:00,66.9,64.8,30.27,SSW,202,0.0,0.0,93,0.00,,BKN027,0.00,VWS V14.01,2013-07-14 05:31:00,
2013-07-14 01:36:00,66.6,64.5,30.27,SSW,202,0.0,0.0,93,0.00,,BKN027,0.00,VWS V14.01,2013-07-14 05:36:00,
2013-07-14 01:41:00,66.2,64.1,30.27,SSW,202,0.0,0.0,93,0.00,,BKN027,0.00,VWS V14.01,2013-07-14 05:41:00,
2013-07-14 01:46:00,66.2,64.1,30.24,SSW,202,0.0,0.0,93,0.00,,BKN027,0.00,VWS V14.01,2013-07-14 05:46:00,
2013-07-14 01:51:00,66.2,64.4,30.24,West,270,0.0,0.0,94,0.00,,BKN027,0.00,VWS V14.01,2013-07-14 05:51:00,
2013-07-14 01:56:00,66.0,64.2,30.24,West,270,0.0,0.0,94,0.00,,BKN027,0.00,VWS V14.01,2013-07-14 05:56:00,
2013-07-14 02:01:00,66.0,64.2,30.24,WSW,248,0.0,0.0,94,0.00,,BKN030,0.00,VWS V14.01,2013-07-14 06:01:00,
2013-07-14 02:06:00,66.2,64.4,30.24,NNW,338,0.0,0.0,94,0.00,,BKN030,0.00,VWS V14.01,2013-07-14 06:06:00,
2013-07-14 02:11:00,66.6,65.1,30.24,North,0,0.0,1.1,95,0.00,,BKN030,0.00,VWS V14.01,2013-07-14 06:11:00,
2013-07-14 02:16:00,66.6,65.1,30.24,SW,225,0.0,0.0,95,0.00,,BKN030,0.00,VWS V14.01,2013-07-14 06:16:00,
2013-07-14 02:21:00,66.7,65.3,30.24,East,90,0.0,0.0,95,0.00,,BKN030,0.00,VWS V14.01,2013-07-14 06:21:00,
2013-07-14 02:26:00,66.9,65.4,30.24,East,90,1.3,1.6,95,0.00,,BKN030,0.00,VWS V14.01,2013-07-14 06:26:00,
2013-07-14 02:31:00,66.9,65.4,30.24,South,180,0.0,1.1,95,0.00,,BKN030,0.00,VWS V14.01,2013-07-14 06:31:00,
2013-07-14 02:36:00,66.9,65.4,30.24,South,180,0.0,0.0,95,0.00,,BKN030,0.00,VWS V14.01,2013-07-14 06:36:00,
2013-07-14 02:41:00,67.1,65.6,30.24,WNW,292,0.0,0.0,95,0.00,,BKN030,0.00,VWS V14.01,2013-07-14 06:41:00,
2013-07-14 02:46:00,66.9,65.4,30.24,WNW,292,0.0,0.0,95,0.00,,BKN030,0.00,VWS V14.01,2013-07-14 06:46:00,
2013-07-14 02:51:00,66.9,65.4,30.24,WNW,292,0.0,0.0,95,0.00,,BKN030,0.00,VWS V14.01,2013-07-14 06:51:00,
2013-07-14 02:56:00,66.9,65.8,30.24,NNW,338,0.0,0.0,96,0.00,,BKN030,0.00,VWS V14.01,2013-07-14 06:56:00,
2013-07-14 03:01:00,67.1,65.9,30.24,NW,315,0.0,0.0,96,0.00,,OVC033,0.00,VWS V14.01,2013-07-14 07:01:00,
2013-07-14 03:06:00,67.1,65.9,30.24,West,270,0.0,0.0,96,0.00,,OVC033,0.00,VWS V14.01,2013-07-14 07:06:00,
2013-07-14 03:11:00,67.1,65.9,30.24,West,270,0.0,0.0,96,0.00,,OVC033,0.00,VWS V14.01,2013-07-14 07:11:00,
2013-07-14 03:16:00,67.1,65.9,30.24,NNW,338,0.0,0.0,96,0.00,,OVC033,0.00,VWS V14.01,2013-07-14 07:16:00,
2013-07-14 03:21:00,67.3,66.1,30.24,East,90,0.0,2.0,96,0.00,,OVC033,0.00,VWS V14.01,2013-07-14 07:21:00,
2013-07-14 03:26:00,67.3,66.1,30.24,SSW,202,0.0,0.0,96,0.00,,OVC033,0.00,VWS V14.01,2013-07-14 07:26:00,
2013-07-14 03:31:00,67.1,65.9,30.24,SW,225,0.0,0.0,96,0.00,,OVC033,0.00,VWS V14.01,2013-07-14 07:31:00,
2013-07-14 03:36:00,67.1,65.6,30.24,SW,225,0.0,0.0,95,0.00,,OVC033,0.00,VWS V14.01,2013-07-14 07:36:00,
2013-07-14 03:41:00,66.9,65.4,30.24,SW,225,0.0,0.0,95,0.00,,OVC033,0.00,VWS V14.01,2013-07-14 07:41:00,
2013-07-14 03:46:00,66.9,65.8,30.24,SW,225,0.0,0.0,96,0.00,,OVC033,0.00,VWS V14.01,2013-07-14 07:46:00,
2013-07-14 03:51:00,67.1,65.9,30.24,South,180,0.0,0.0,96,0.00,,OVC033,0.00,VWS V14.01,2013-07-14 07:51:00,
2013-07-14 03:56:00,67.3,66.1,30.24,West,270,0.0,0.0,96,0.00,,OVC033,0.00,VWS V14.01,2013-07-14 07:56:00,
2013-07-14 04:01:00,67.3,66.1,30.24,West,270,0.0,0.0,96,0.00,,BKN037,0.00,VWS V14.01,2013-07-14 08:01:00,
2013-07-14 04:06:00,67.3,66.1,30.24,West,270,0.0,0.0,96,0.00,,BKN037,0.00,VWS V14.01,2013-07-14 08:06:00,
2013-07-14 04:11:00,67.3,66.1,30.24,West,270,0.9,1.1,96,0.00,,BKN037,0.00,VWS V14.01,2013-07-14 08:11:00,
2013-07-14 04:16:00,67.3,66.1,30.24,SSW,202,2.2,2.2,96,0.00,,BKN037,0.00,VWS V14.01,2013-07-14 08:16:00,
2013-07-14 04:21:00,67.1,65.9,30.24,SSW,202,0.0,0.0,96,0.00,,BKN037,0.00,VWS V14.01,2013-07-14 08:21:00,
2013-07-14 04:26:00,67.3,66.1,30.24,SSW,202,0.0,0.0,96,0.00,,BKN037,0.00,VWS V14.01,2013-07-14 08:26:00,
2013-07-14 04:31:00,67.3,66.1,30.24,SSW,202,0.0,0.0,96,0.00,,BKN037,0.00,VWS V14.01,2013-07-14 08:31:00,
2013-07-14 04:36:00,67.3,66.1,30.24,SSW,202,0.0,0.0,96,0.00,,BKN037,0.00,VWS V14.01,2013-07-14 08:36:00,
2013-07-14 04:41:00,67.1,65.9,30.24,SSW,202,0.0,0.0,96,0.00,,BKN037,0.00,VWS V14.01,2013-07-14 08:41:00,
2013-07-14 04:46:00,66.9,65.8,30.24,SSW,202,0.0,0.0,96,0.00,,BKN037,0.00,VWS V14.01,2013-07-14 08:46:00,
2013-07-14 04:51:00,66.9,65.8,30.24,SSW,202,0.0,0.0,96,0.00,,BKN037,0.00,VWS V14.01,2013-07-14 08:51:00,
2013-07-14 04:56:00,66.9,65.8,30.24,SSW,202,0.0,0.0,96,0.00,,BKN037,0.00,VWS V14.01,2013-07-14 08:56:00,
2013-07-14 05:01:00,66.7,65.6,30.24,SSW,202,0.0,0.0,96,0.00,,OVC039,0.00,VWS V14.01,2013-07-14 09:01:00,
2013-07-14 05:06:00,66.7,65.6,30.24,SSW,202,0.0,0.0,96,0.00,,OVC039,0.00,VWS V14.01,2013-07-14 09:06:00,
2013-07-14 05:11:00,66.7,65.6,30.24,NW,315,0.0,0.0,96,0.00,,OVC039,0.00,VWS V14.01,2013-07-14 09:11:00,
2013-07-14 05:16:00,66.7,65.9,30.27,NW,315,0.0,0.0,97,0.00,,OVC039,0.00,VWS V14.01,2013-07-14 09:16:00,
2013-07-14 05:21:00,66.9,66.0,30.27,WNW,292,0.0,0.0,97,0.00,,OVC039,0.00,VWS V14.01,2013-07-14 09:21:00,
2013-07-14 05:26:00,66.9,66.0,30.27,NE,45,0.0,0.0,97,0.00,,OVC039,0.00,VWS V14.01,2013-07-14 09:26:00,
2013-07-14 05:31:00,66.9,66.0,30.27,South,180,0.0,0.0,97,0.00,,OVC039,0.00,VWS V14.01,2013-07-14 09:31:00,
2013-07-14 05:36:00,67.1,66.2,30.27,SW,225,2.5,2.7,97,0.00,,OVC039,0.00,VWS V14.01,2013-07-14 09:36:00,
2013-07-14 05:41:00,67.6,66.8,30.27,SW,225,1.1,1.6,97,0.00,,OVC039,0.00,VWS V14.01,2013-07-14 09:41:00,
2013-07-14 05:46:00,67.6,66.8,30.27,South,180,0.0,1.3,97,0.00,,OVC039,0.00,VWS V14.01,2013-07-14 09:46:00,
2013-07-14 05:51:00,68.0,67.1,30.27,WNW,292,0.0,4.0,97,0.00,,OVC039,0.00,VWS V14.01,2013-07-14 09:51:00,
2013-07-14 05:56:00,68.0,67.1,30.27,SSE,158,1.1,2.0,97,0.00,,OVC039,0.00,VWS V14.01,2013-07-14 09:56:00,
2013-07-14 06:01:00,68.0,67.1,30.27,South,180,2.2,3.4,97,0.00,,BKN038,0.00,VWS V14.01,2013-07-14 10:01:00,
2013-07-14 06:06:00,67.6,66.5,30.27,East,90,1.1,1.1,96,0.00,,BKN038,0.00,VWS V14.01,2013-07-14 10:06:00,
2013-07-14 06:11:00,67.3,65.8,30.27,North,0,0.0,1.6,95,0.00,,BKN038,0.00,VWS V14.01,2013-07-14 10:11:00,
2013-07-14 06:16:00,67.1,65.3,30.27,NE,45,0.0,1.1,94,0.00,,BKN038,0.00,VWS V14.01,2013-07-14 10:16:00,
2013-07-14 06:21:00,66.9,65.1,30.27,NW,315,0.0,2.2,94,0.00,,BKN038,0.00,VWS V14.01,2013-07-14 10:21:00,
2013-07-14 06:26:00,67.1,65.6,30.27,SW,225,1.1,2.5,95,0.00,,BKN038,0.00,VWS V14.01,2013-07-14 10:26:00,
2013-07-14 06:31:00,67.3,65.8,30.27,East,90,1.1,5.4,95,0.00,,BKN038,0.00,VWS V14.01,2013-07-14 10:31:00,
2013-07-14 06:36:00,67.8,66.0,30.27,East,90,2.0,5.8,94,0.00,,BKN038,0.00,VWS V14.01,2013-07-14 10:36:00,
2013-07-14 06:41:00,68.5,66.1,30.27,SE,135,2.0,3.1,92,0.00,,BKN038,0.00,VWS V14.01,2013-07-14 10:41:00,
2013-07-14 06:46:00,68.4,65.6,30.24,West,270,0.0,2.5,91,0.00,,BKN038,0.00,VWS V14.01,2013-07-14 10:46:00,
2013-07-14 06:51:00,68.0,65.0,30.24,West,270,0.9,2.5,90,0.00,,BKN038,0.00,VWS V14.01,2013-07-14 10:51:00,
2013-07-14 06:56:00,68.4,65.3,30.24,NNW,338,0.0,2.7,90,0.00,,BKN038,0.00,VWS V14.01,2013-07-14 10:56:00,
2013-07-14 07:01:00,68.0,65.0,30.27,South,180,1.6,3.4,90,0.00,,SCT027,0.00,VWS V14.01,2013-07-14 11:01:00,
2013-07-14 07:06:00,68.9,64.9,30.27,SW,225,3.8,4.0,87,0.00,,SCT027,0.00,VWS V14.01,2013-07-14 11:06:00,
2013-07-14 07:11:00,69.4,65.1,30.27,SSW,202,1.1,3.1,86,0.00,,SCT027,0.00,VWS V14.01,2013-07-14 11:11:00,
2013-07-14 07:16:00,69.4,65.1,30.27,South,180,2.0,2.0,86,0.00,,SCT027,0.00,VWS V14.01,2013-07-14 11:16:00,
2013-07-14 07:21:00,69.6,64.6,30.27,SSW,202,2.0,3.1,84,0.00,,SCT027,0.00,VWS V14.01,2013-07-14 11:21:00,
2013-07-14 07:26:00,69.4,64.4,30.27,SSW,202,0.9,2.0,84,0.00,,SCT027,0.00,VWS V14.01,2013-07-14 11:26:00,
2013-07-14 07:31:00,69.6,63.9,30.27,East,90,3.8,3.8,82,0.00,,SCT027,0.00,VWS V14.01,2013-07-14 11:31:00,
2013-07-14 07:36:00,69.8,64.1,30.27,West,270,2.0,2.0,82,0.00,,SCT027,0.00,VWS V14.01,2013-07-14 11:36:00,
2013-07-14 07:41:00,69.4,64.1,30.27,NNW,338,0.0,0.0,83,0.00,,SCT027,0.00,VWS V14.01,2013-07-14 11:41:00,
2013-07-14 07:46:00,69.3,63.9,30.27,NNW,338,0.0,0.0,83,0.00,,SCT027,0.00,VWS V14.01,2013-07-14 11:46:00,
2013-07-14 07:51:00,69.8,64.1,30.27,WSW,248,0.0,0.0,82,0.00,,SCT027,0.00,VWS V14.01,2013-07-14 11:51:00,
2013-07-14 07:56:00,70.3,64.2,30.27,South,180,2.9,4.0,81,0.00,,SCT027,0.00,VWS V14.01,2013-07-14 11:56:00,
2013-07-14 08:01:00,70.5,63.7,30.27,SSW,202,2.0,2.0,79,0.00,,SCT027,0.00,VWS V14.01,2013-07-14 12:01:00,
2013-07-14 08:06:00,71.1,64.2,30.27,ESE,112,6.5,6.5,79,0.00,,SCT027,0.00,VWS V14.01,2013-07-14 12:06:00,
2013-07-14 08:11:00,71.4,64.2,30.27,West,270,2.5,5.8,78,0.00,,SCT027,0.00,VWS V14.01,2013-07-14 12:11:00,
2013-07-14 08:16:00,71.6,63.6,30.30,South,180,2.9,6.3,76,0.00,,SCT027,0.00,VWS V14.01,2013-07-14 12:16:00,
2013-07-14 08:21:00,72.0,63.2,30.30,SSW,202,4.0,8.7,74,0.00,,SCT027,0.00,VWS V14.01,2013-07-14 12:21:00,
2013-07-14 08:26:00,72.1,63.8,30.30,SE,135,6.0,6.0,75,0.00,,SCT027,0.00,VWS V14.01,2013-07-14 12:26:00,
2013-07-14 08:31:00,72.5,63.8,30.27,WSW,248,3.8,6.3,74,0.00,,SCT027,0.00,VWS V14.01,2013-07-14 12:31:00,
2013-07-14 08:36:00,72.7,64.3,30.27,South,180,2.9,3.8,75,0.00,,SCT027,0.00,VWS V14.01,2013-07-14 12:36:00,
2013-07-14 08:41:00,73.0,63.9,30.27,SW,225,2.7,3.6,73,0.00,,SCT027,0.00,VWS V14.01,2013-07-14 12:41:00,
2013-07-14 08:46:00,73.4,63.0,30.30,SSE,158,4.0,5.6,70,0.00,,SCT027,0.00,VWS V14.01,2013-07-14 12:46:00,
2013-07-14 08:51:00,73.8,63.4,30.30,East,90,3.8,5.8,70,0.00,,SCT027,0.00,VWS V14.01,2013-07-14 12:51:00,
2013-07-14 08:56:00,74.5,64.1,30.30,SSE,158,9.8,9.8,70,0.00,,SCT027,0.00,VWS V14.01,2013-07-14 12:56:00,
2013-07-14 09:01:00,75.6,63.4,30.30,NNW,338,5.4,6.0,66,0.00,,OVC022,0.00,VWS V14.01,2013-07-14 13:01:00,
2013-07-14 09:06:00,76.6,64.9,30.30,South,180,6.3,6.3,67,0.00,,OVC022,0.00,VWS V14.01,2013-07-14 13:06:00,
2013-07-14 09:11:00,77.7,64.1,30.30,SSE,158,5.8,5.8,63,0.00,,OVC022,0.00,VWS V14.01,2013-07-14 13:11:00,
2013-07-14 09:16:00,78.8,62.8,30.33,SSW,202,3.1,5.6,58,0.00,,OVC022,0.00,VWS V14.01,2013-07-14 13:16:00,
2013-07-14 09:21:00,79.3,62.3,30.33,SSW,202,2.5,5.4,56,0.00,,OVC022,0.00,VWS V14.01,2013-07-14 13:21:00,
2013-07-14 09:26:00,79.9,63.8,30.33,West,270,1.1,5.8,58,0.00,,OVC022,0.00,VWS V14.01,2013-07-14 13:26:00,
2013-07-14 09:31:00,79.7,61.1,30.33,South,180,3.6,12.1,53,0.00,,OVC022,0.00,VWS V14.01,2013-07-14 13:31:00,
2013-07-14 09:36:00,79.3,62.3,30.33,SW,225,2.5,3.4,56,0.00,,OVC022,0.00,VWS V14.01,2013-07-14 13:36:00,
2013-07-14 09:41:00,79.9,62.8,30.33,SW,225,5.6,5.6,56,0.00,,OVC022,0.00,VWS V14.01,2013-07-14 13:41:00,
2013-07-14 09:46:00,80.6,62.4,30.33,West,270,2.7,7.4,54,0.00,,OVC022,0.00,VWS V14.01,2013-07-14 13:46:00,
2013-07-14 09:51:00,82.9,65.1,30.33,SSW,202,2.0,3.6,55,0.00,,OVC022,0.00,VWS V14.01,2013-07-14 13:51:00,
2013-07-14 09:56:00,82.2,62.9,30.33,South,180,4.3,5.4,52,0.00,,OVC022,0.00,VWS V14.01,2013-07-14 13:56:00,
2013-07-14 10:01:00,82.8,63.4,30.33,SSW,202,1.1,3.8,52,0.00,,OVC016,0.00,VWS V14.01,2013-07-14 14:01:00,
2013-07-14 10:06:00,81.5,61.1,30.33,South,180,2.0,13.0,50,0.00,,OVC016,0.00,VWS V14.01,2013-07-14 14:06:00,
2013-07-14 10:11:00,81.0,61.2,30.33,South,180,1.3,6.3,51,0.00,,OVC016,0.00,VWS V14.01,2013-07-14 14:11:00,
2013-07-14 10:16:00,82.0,62.1,30.30,SE,135,4.9,7.6,51,0.00,,OVC016,0.00,VWS V14.01,2013-07-14 14:16:00,
2013-07-14 10:21:00,84.6,63.3,30.30,West,270,0.9,5.6,49,0.00,,OVC016,0.00,VWS V14.01,2013-07-14 14:21:00,
2013-07-14 10:26:00,85.3,63.4,30.30,WSW,248,1.1,3.1,48,0.00,,OVC016,0.00,VWS V14.01,2013-07-14 14:26:00,
2013-07-14 10:31:00,82.0,61.0,30.30,SSE,158,3.6,6.5,49,0.00,,OVC016,0.00,VWS V14.01,2013-07-14 14:31:00,
2013-07-14 10:36:00,81.7,60.7,30.30,South,180,2.0,7.8,49,0.00,,OVC016,0.00,VWS V14.01,2013-07-14 14:36:00,
2013-07-14 10:41:00,82.2,61.2,30.30,South,180,3.1,4.0,49,0.00,,OVC016,0.00,VWS V14.01,2013-07-14 14:41:00,
2013-07-14 10:46:00,83.5,61.8,30.33,South,180,3.8,5.8,48,0.00,,OVC016,0.00,VWS V14.01,2013-07-14 14:46:00,
2013-07-14 10:51:00,84.2,61.8,30.33,South,180,4.9,4.9,47,0.00,,OVC016,0.00,VWS V14.01,2013-07-14 14:51:00,
2013-07-14 10:56:00,84.7,61.1,30.33,SE,135,6.5,6.7,45,0.00,,OVC016,0.00,VWS V14.01,2013-07-14 14:56:00,
2013-07-14 11:01:00,87.3,64.0,30.33,SW,225,2.7,8.1,46,0.00,,OVC018,0.00,VWS V14.01,2013-07-14 15:01:00,
2013-07-14 11:06:00,87.1,61.2,30.33,SW,225,2.9,12.5,42,0.00,,OVC018,0.00,VWS V14.01,2013-07-14 15:06:00,
2013-07-14 11:11:00,86.9,61.1,30.33,SSW,202,5.6,6.3,42,0.00,,OVC018,0.00,VWS V14.01,2013-07-14 15:11:00,
2013-07-14 11:16:00,85.6,60.6,30.33,East,90,8.1,8.1,43,0.00,,OVC018,0.00,VWS V14.01,2013-07-14 15:16:00,
2013-07-14 11:21:00,85.5,60.4,30.33,SW,225,3.6,8.7,43,0.00,,OVC018,0.00,VWS V14.01,2013-07-14 15:21:00,
2013-07-14 11:26:00,84.7,60.4,30.33,SE,135,5.6,7.2,44,0.00,,OVC018,0.00,VWS V14.01,2013-07-14 15:26:00,
2013-07-14 11:31:00,84.0,60.4,30.33,South,180,3.6,4.9,45,0.00,,OVC018,0.00,VWS V14.01,2013-07-14 15:31:00,
2013-07-14 11:36:00,83.1,60.2,30.33,South,180,7.4,7.6,46,0.00,,OVC018,0.00,VWS V14.01,2013-07-14 15:36:00,
2013-07-14 11:41:00,82.0,60.4,30.33,SW,225,3.6,6.5,48,0.00,,OVC018,0.00,VWS V14.01,2013-07-14 15:41:00,
2013-07-14 11:46:00,84.4,62.6,30.33,North,0,2.9,3.1,48,0.00,,OVC018,0.00,VWS V14.01,2013-07-14 15:46:00,
2013-07-14 11:50:00,85.6,63.1,30.33,SE,135,3.6,10.1,47,0.00,,OVC018,0.00,VWS V14.01,2013-07-14 15:50:00,
2013-07-14 11:55:00,86.7,62.9,30.33,ESE,112,1.6,7.6,45,0.00,,OVC018,0.00,VWS V14.01,2013-07-14 15:55:00,
2013-07-14 12:00:00,89.4,63.3,30.33,SSE,158,5.6,7.4,42,0.00,,BKN032,0.00,VWS V14.01,2013-07-14 16:00:00,
2013-07-14 12:05:00,86.7,60.2,30.33,ESE,112,6.0,10.3,41,0.00,,BKN032,0.00,VWS V14.01,2013-07-14 16:05:00,
2013-07-14 12:10:00,86.7,60.2,30.33,ESE,112,9.6,11.0,41,0.00,,BKN032,0.00,VWS V14.01,2013-07-14 16:10:00,
2013-07-14 12:15:00,85.3,60.3,30.33,South,180,3.6,8.1,43,0.00,,BKN032,0.00,VWS V14.01,2013-07-14 16:15:00,
2013-07-14 12:20:00,85.6,60.6,30.33,East,90,8.7,12.8,43,0.00,,BKN032,0.00,VWS V14.01,2013-07-14 16:20:00,
2013-07-14 12:25:00,86.2,60.4,30.33,WSW,248,4.3,6.5,42,0.00,,BKN032,0.00,VWS V14.01,2013-07-14 16:25:00,
2013-07-14 12:30:00,87.6,61.0,30.33,SW,225,5.4,7.6,41,0.00,,BKN032,0.00,VWS V14.01,2013-07-14 16:30:00,
2013-07-14 12:35:00,87.4,60.9,30.33,South,180,3.4,11.0,41,0.00,,BKN032,0.00,VWS V14.01,2013-07-14 16:35:00,
2013-07-14 12:40:00,87.1,59.8,30.33,SE,135,5.8,11.0,40,0.00,,BKN032,0.00,VWS V14.01,2013-07-14 16:40:00,
2013-07-14 12:45:00,88.3,61.7,30.33,ESE,112,3.1,9.6,41,0.00,,BKN032,0.00,VWS V14.01,2013-07-14 16:45:00,
2013-07-14 12:50:00,88.2,60.8,30.33,South,180,3.6,8.5,40,0.00,,BKN032,0.00,VWS V14.01,2013-07-14 16:50:00,
2013-07-14 12:55:00,87.3,60.0,30.33,East,90,6.5,10.3,40,0.00,,BKN032,0.00,VWS V14.01,2013-07-14 16:55:00,
2013-07-14 13:00:00,87.1,61.2,30.33,SE,135,6.3,8.5,42,0.00,,BKN034,0.00,VWS V14.01,2013-07-14 17:00:00,
2013-07-14 13:05:00,88.2,60.8,30.33,ENE,68,5.6,10.3,40,0.00,,BKN034,0.00,VWS V14.01,2013-07-14 17:05:00,
2013-07-14 13:10:00,88.0,60.7,30.33,South,180,4.3,6.5,40,0.00,,BKN034,0.00,VWS V14.01,2013-07-14 17:10:00,
2013-07-14 13:15:00,88.9,62.2,30.30,ENE,68,5.4,5.8,41,0.00,,BKN034,0.00,VWS V14.01,2013-07-14 17:15:00,
2013-07-14 13:20:00,90.7,61.6,30.30,East,90,9.4,9.4,38,0.00,,BKN034,0.00,VWS V14.01,2013-07-14 17:20:00,
2013-07-14 13:25:00,88.9,60.0,30.30,South,180,4.0,9.8,38,0.00,,BKN034,0.00,VWS V14.01,2013-07-14 17:25:00,
2013-07-14 13:30:00,86.9,59.0,30.33,SE,135,6.5,9.2,39,0.00,,BKN034,0.00,VWS V14.01,2013-07-14 17:30:00,
2013-07-14 13:35:00,87.3,60.0,30.33,South,180,3.6,5.6,40,0.00,,BKN034,0.00,VWS V14.01,2013-07-14 17:35:00,
2013-07-14 13:40:00,86.7,58.8,30.33,SW,225,3.8,13.9,39,0.00,,BKN034,0.00,VWS V14.01,2013-07-14 17:40:00,
2013-07-14 13:45:00,85.3,58.2,30.33,SE,135,7.2,8.7,40,0.00,,BKN034,0.00,VWS V14.01,2013-07-14 17:45:00,
2013-07-14 13:50:00,87.4,60.9,30.33,South,180,3.4,9.4,41,0.00,,BKN034,0.00,VWS V14.01,2013-07-14 17:50:00,
2013-07-14 13:55:00,88.2,60.1,30.33,NNW,338,2.5,9.8,39,0.00,,BKN034,0.00,VWS V14.01,2013-07-14 17:55:00,
2013-07-14 14:00:00,87.8,59.8,30.33,South,180,10.1,10.1,39,0.00,,OVC044,0.00,VWS V14.01,2013-07-14 18:00:00,
2013-07-14 14:05:00,88.3,61.0,30.33,SE,135,8.5,8.5,40,0.00,,OVC044,0.00,VWS V14.01,2013-07-14 18:05:00,
2013-07-14 14:10:00,88.3,60.3,30.33,South,180,4.7,9.6,39,0.00,,OVC044,0.00,VWS V14.01,2013-07-14 18:10:00,
2013-07-14 14:15:00,88.3,59.5,30.30,North,0,1.3,6.3,38,0.00,,OVC044,0.00,VWS V14.01,2013-07-14 18:15:00,
2013-07-14 14:20:00,89.4,61.2,30.30,South,180,4.3,5.8,39,0.00,,OVC044,0.00,VWS V14.01,2013-07-14 18:20:00,
2013-07-14 14:25:00,91.9,62.0,30.30,SSE,158,3.4,4.3,37,0.00,,OVC044,0.00,VWS V14.01,2013-07-14 18:25:00,
2013-07-14 14:30:00,90.7,58.5,30.33,South,180,4.9,9.8,34,0.00,,OVC044,0.00,VWS V14.01,2013-07-14 18:30:00,
2013-07-14 14:35:00,90.5,58.3,30.33,SW,225,3.8,10.7,34,0.00,,OVC044,0.00,VWS V14.01,2013-07-14 18:35:00,
2013-07-14 14:40:00,88.3,58.0,30.33,SE,135,6.5,9.8,36,0.00,,OVC044,0.00,VWS V14.01,2013-07-14 18:40:00,
2013-07-14 14:45:00,88.0,60.0,30.33,SSW,202,4.0,8.5,39,0.00,,OVC044,0.00,VWS V14.01,2013-07-14 18:45:00,
2013-07-14 14:50:00,89.4,60.5,30.33,South,180,3.6,4.7,38,0.00,,OVC044,0.00,VWS V14.01,2013-07-14 18:50:00,
2013-07-14 14:55:00,88.9,58.5,30.33,South,180,4.9,8.1,36,0.00,,OVC044,0.00,VWS V14.01,2013-07-14 18:55:00,
2013-07-14 15:00:00,88.3,58.8,30.30,SSW,202,4.3,4.3,37,0.00,,FEW031,0.00,VWS V14.01,2013-07-14 19:00:00,
2013-07-14 15:01:00,88.3,58.8,30.30,South,180,2.0,4.3,37,0.00,,FEW031,0.00,VWS V14.01,2013-07-14 19:01:00,
2013-07-14 15:06:00,90.5,59.9,30.30,SSW,202,2.9,7.6,36,0.00,,FEW031,0.00,VWS V14.01,2013-07-14 19:06:00,
2013-07-14 15:11:00,90.9,60.2,30.30,East,90,4.0,8.7,36,0.00,,FEW031,0.00,VWS V14.01,2013-07-14 19:11:00,
2013-07-14 15:16:00,91.0,58.8,30.33,SSE,158,2.0,6.5,34,0.00,,FEW031,0.00,VWS V14.01,2013-07-14 19:16:00,
2013-07-14 15:21:00,90.0,57.9,30.33,South,180,3.8,4.7,34,0.00,,FEW031,0.00,VWS V14.01,2013-07-14 19:21:00,
2013-07-14 15:26:00,89.8,59.3,30.33,East,90,4.9,8.7,36,0.00,,FEW031,0.00,VWS V14.01,2013-07-14 19:26:00,
2013-07-14 15:31:00,89.6,59.1,30.33,SE,135,11.0,11.0,36,0.00,,FEW031,0.00,VWS V14.01,2013-07-14 19:31:00,
2013-07-14 15:36:00,91.2,58.1,30.33,South,180,4.9,5.6,33,0.00,,FEW031,0.00,VWS V14.01,2013-07-14 19:36:00,
2013-07-14 15:41:00,91.4,58.3,30.33,South,180,7.2,7.2,33,0.00,,FEW031,0.00,VWS V14.01,2013-07-14 19:41:00,
2013-07-14 15:46:00,90.9,56.1,30.33,WSW,248,2.5,7.4,31,0.00,,FEW031,0.00,VWS V14.01,2013-07-14 19:46:00,
2013-07-14 15:51:00,93.2,59.8,30.33,SSE,158,3.4,4.9,33,0.00,,FEW031,0.00,VWS V14.01,2013-07-14 19:51:00,
2013-07-14 15:56:00,91.2,56.4,30.33,SE,135,3.4,6.0,31,0.00,,FEW031,0.00,VWS V14.01,2013-07-14 19:56:00,
2013-07-14 16:01:00,90.0,57.0,30.33,SE,135,2.9,6.5,33,0.00,,BKN046,0.00,VWS V14.01,2013-07-14 20:01:00,
2013-07-14 16:06:00,87.8,55.2,30.33,SSW,202,2.5,6.5,33,0.00,,BKN046,0.00,VWS V14.01,2013-07-14 20:06:00,
2013-07-14 16:11:00,89.1,58.7,30.33,SW,225,1.1,2.5,36,0.00,,BKN046,0.00,VWS V14.01,2013-07-14 20:11:00,
2013-07-14 16:16:00,88.0,57.7,30.33,SW,225,2.0,3.6,36,0.00,,BKN046,0.00,VWS V14.01,2013-07-14 20:16:00,
2013-07-14 16:21:00,87.3,58.6,30.33,SSE,158,4.9,4.9,38,0.00,,BKN046,0.00,VWS V14.01,2013-07-14 20:21:00,
2013-07-14 16:26:00,88.2,57.9,30.33,South,180,3.8,4.5,36,0.00,,BKN046,0.00,VWS V14.01,2013-07-14 20:26:00,
2013-07-14 16:31:00,89.2,58.8,30.33,SE,135,2.9,6.5,36,0.00,,BKN046,0.00,VWS V14.01,2013-07-14 20:31:00,
2013-07-14 16:36:00,89.2,59.6,30.33,South,180,3.6,10.1,37,0.00,,BKN046,0.00,VWS V14.01,2013-07-14 20:36:00,
2013-07-14 16:41:00,90.5,58.3,30.33,SE,135,5.4,6.5,34,0.00,,BKN046,0.00,VWS V14.01,2013-07-14 20:41:00,
2013-07-14 16:46:00,90.3,58.2,30.33,ESE,112,4.9,7.4,34,0.00,,BKN046,0.00,VWS V14.01,2013-07-14 20:46:00,
2013-07-14 16:51:00,91.2,58.1,30.33,South,180,5.6,5.6,33,0.00,,BKN046,0.00,VWS V14.01,2013-07-14 20:51:00,
2013-07-14 16:56:00,92.7,57.6,30.33,SSE,158,3.6,3.6,31,0.00,,BKN046,0.00,VWS V14.01,2013-07-14 20:56:00,
2013-07-14 17:01:00,93.4,58.2,30.33,South,180,1.3,4.3,31,0.00,,SCT047,0.00,VWS V14.01,2013-07-14 21:01:00,
2013-07-14 17:06:00,90.5,55.8,30.33,SW,225,3.6,6.0,31,0.00,,SCT047,0.00,VWS V14.01,2013-07-14 21:06:00,
2013-07-14 17:11:00,92.3,57.3,30.33,South,180,4.3,4.3,31,0.00,,SCT047,0.00,VWS V14.01,2013-07-14 21:11:00,
2013-07-14 17:16:00,92.3,57.3,30.33,South,180,0.0,3.8,31,0.00,,SCT047,0.00,VWS V14.01,2013-07-14 21:16:00,
2013-07-14 17:21:00,93.9,58.7,30.33,South,180,2.0,3.4,31,0.00,,SCT047,0.00,VWS V14.01,2013-07-14 21:21:00,
2013-07-14 17:26:00,93.7,58.6,30.33,SSE,158,2.9,3.1,31,0.00,,SCT047,0.00,VWS V14.01,2013-07-14 21:26:00,
2013-07-14 17:31:00,94.1,58.9,30.33,SE,135,1.3,3.8,31,0.00,,SCT047,0.00,VWS V14.01,2013-07-14 21:31:00,
2013-07-14 17:36:00,91.6,57.6,30.33,SE,135,2.5,3.4,32,0.00,,SCT047,0.00,VWS V14.01,2013-07-14 21:36:00,
2013-07-14 17:41:00,89.6,57.5,30.33,SE,135,3.4,3.4,34,0.00,,SCT047,0.00,VWS V14.01,2013-07-14 21:41:00,
2013-07-14 17:46:00,89.4,56.6,30.33,SSW,202,1.6,6.5,33,0.00,,SCT047,0.00,VWS V14.01,2013-07-14 21:46:00,
2013-07-14 17:51:00,90.7,59.3,30.33,SW,225,2.2,4.0,35,0.00,,SCT047,0.00,VWS V14.01,2013-07-14 21:51:00,
2013-07-14 17:56:00,92.1,58.9,30.33,NW,315,0.0,3.6,33,0.00,,SCT047,0.00,VWS V14.01,2013-07-14 21:56:00,
2013-07-14 18:01:00,90.0,57.9,30.33,SW,225,2.7,2.7,34,0.00,,BKN049,0.00,VWS V14.01,2013-07-14 22:01:00,
2013-07-14 18:06:00,87.4,57.2,30.33,SW,225,1.1,3.1,36,0.00,,BKN049,0.00,VWS V14.01,2013-07-14 22:06:00,
2013-07-14 18:11:00,86.4,57.0,30.33,SW,225,1.1,2.9,37,0.00,,BKN049,0.00,VWS V14.01,2013-07-14 22:11:00,
2013-07-14 18:16:00,87.6,59.6,30.33,South,180,3.8,3.8,39,0.00,,BKN049,0.00,VWS V14.01,2013-07-14 22:16:00,
2013-07-14 18:21:00,88.9,60.0,30.33,South,180,1.1,2.7,38,0.00,,BKN049,0.00,VWS V14.01,2013-07-14 22:21:00,
2013-07-14 18:26:00,88.5,59.7,30.33,South,180,1.6,4.0,38,0.00,,BKN049,0.00,VWS V14.01,2013-07-14 22:26:00,
2013-07-14 18:31:00,91.8,61.8,30.33,West,270,1.6,2.2,37,0.00,,BKN049,0.00,VWS V14.01,2013-07-14 22:31:00,
2013-07-14 18:36:00,91.6,58.4,30.33,WNW,292,5.6,5.6,33,0.00,,BKN049,0.00,VWS V14.01,2013-07-14 22:36:00,
2013-07-14 18:41:00,90.7,58.5,30.33,East,90,1.1,4.3,34,0.00,,BKN049,0.00,VWS V14.01,2013-07-14 22:41:00,
2013-07-14 18:46:00,88.7,58.3,30.33,SE,135,3.1,3.8,36,0.00,,BKN049,0.00,VWS V14.01,2013-07-14 22:46:00,
2013-07-14 18:51:00,87.6,58.9,30.33,SW,225,1.6,2.5,38,0.00,,BKN049,0.00,VWS V14.01,2013-07-14 22:51:00,
2013-07-14 18:56:00,86.7,58.1,30.33,SSW,202,1.3,3.4,38,0.00,,BKN049,0.00,VWS V14.01,2013-07-14 22:56:00,
2013-07-14 19:01:00,86.0,58.2,30.33,South,180,3.1,3.6,39,0.00,,BKN050,0.00,VWS V14.01,2013-07-14 23:01:00,
2013-07-14 19:06:00,85.6,59.3,30.33,ESE,112,2.0,2.9,41,0.00,,BKN050,0.00,VWS V14.01,2013-07-14 23:06:00,
2013-07-14 19:11:00,85.5,59.8,30.33,SW,225,1.3,3.1,42,0.00,,BKN050,0.00,VWS V14.01,2013-07-14 23:11:00,
2013-07-14 19:16:00,85.6,59.9,30.33,WNW,292,2.5,2.5,42,0.00,,BKN050,0.00,VWS V14.01,2013-07-14 23:16:00,
2013-07-14 19:21:00,85.3,60.3,30.33,NE,45,1.3,1.3,43,0.00,,BKN050,0.00,VWS V14.01,2013-07-14 23:21:00,
2013-07-14 19:26:00,84.2,59.3,30.33,SE,135,4.3,4.3,43,0.00,,BKN050,0.00,VWS V14.01,2013-07-14 23:26:00,
2013-07-14 19:31:00,84.4,60.7,30.33,West,270,0.0,2.0,45,0.00,,BKN050,0.00,VWS V14.01,2013-07-14 23:31:00,
2013-07-14 19:36:00,84.0,61.0,30.33,SSE,158,4.3,6.3,46,0.00,,BKN050,0.00,VWS V14.01,2013-07-14 23:36:00,
2013-07-14 19:41:00,82.9,59.4,30.33,South,180,2.2,2.2,45,0.00,,BKN050,0.00,VWS V14.01,2013-07-14 23:41:00,
2013-07-14 19:46:00,82.2,58.8,30.33,West,270,1.6,3.1,45,0.00,,BKN050,0.00,VWS V14.01,2013-07-14 23:46:00,
2013-07-14 19:51:00,81.5,58.1,30.33,NW,315,2.0,3.1,45,0.00,,BKN050,0.00,VWS V14.01,2013-07-14 23:51:00,
2013-07-14 19:56:00,81.5,59.3,30.33,WSW,248,2.9,2.9,47,0.00,,BKN050,0.00,VWS V14.01,2013-07-14 23:56:00,
2013-07-14 20:01:00,80.8,58.1,30.33,South,180,3.4,3.4,46,0.00,,CLR,0.00,VWS V14.01,2013-07-15 00:01:00,
2013-07-14 20:06:00,79.9,60.2,30.33,South,180,2.9,6.5,51,0.00,,CLR,0.00,VWS V14.01,2013-07-15 00:06:00,
2013-07-14 20:11:00,79.0,59.9,30.33,East,90,0.0,4.5,52,0.00,,CLR,0.00,VWS V14.01,2013-07-15 00:11:00,
2013-07-14 20:16:00,78.3,60.8,30.33,North,0,0.0,2.2,55,0.00,,CLR,0.00,VWS V14.01,2013-07-15 00:16:00,
2013-07-14 20:20:00,77.5,61.1,30.33,North,0,0.0,0.0,57,0.00,,CLR,0.00,VWS V14.01,2013-07-15 00:20:00,
2013-07-14 20:25:00,76.6,60.8,30.33,North,0,0.0,0.0,58,0.00,,CLR,0.00,VWS V14.01,2013-07-15 00:25:00,
2013-07-14 20:30:00,75.7,61.8,30.33,North,0,0.0,0.0,62,0.00,,CLR,0.00,VWS V14.01,2013-07-15 00:30:00,
2013-07-14 20:35:00,75.2,61.8,30.33,North,0,0.0,0.0,63,0.00,,CLR,0.00,VWS V14.01,2013-07-15 00:35:00,
2013-07-14 20:40:00,74.3,61.8,30.33,North,0,0.0,0.0,65,0.00,,CLR,0.00,VWS V14.01,2013-07-15 00:40:00,
2013-07-14 20:45:00,73.6,61.5,30.33,North,0,0.0,0.0,66,0.00,,CLR,0.00,VWS V14.01,2013-07-15 00:45:00,
2013-07-14 20:51:00,73.0,61.9,30.33,North,0,0.0,0.0,68,0.00,,CLR,0.00,VWS V14.01,2013-07-15 00:51:00,
2013-07-14 20:56:00,72.3,61.6,30.33,North,0,0.0,0.0,69,0.00,,CLR,0.00,VWS V14.01,2013-07-15 00:56:00,
2013-07-14 21:01:00,71.6,60.9,30.33,North,0,0.0,0.0,69,0.00,,CLR,0.00,VWS V14.01,2013-07-15 01:01:00,
2013-07-14 21:05:00,71.1,60.8,30.33,North,0,0.0,0.0,70,0.00,,CLR,0.00,VWS V14.01,2013-07-15 01:05:00,
2013-07-14 21:10:00,70.7,61.2,30.33,East,90,0.0,1.3,72,0.00,,CLR,0.00,VWS V14.01,2013-07-15 01:10:00,
2013-07-14 21:15:00,70.2,61.1,30.33,NE,45,0.0,0.0,73,0.00,,CLR,0.00,VWS V14.01,2013-07-15 01:15:00,
2013-07-14 21:20:00,69.6,61.0,30.33,NE,45,0.0,0.0,74,0.00,,CLR,0.00,VWS V14.01,2013-07-15 01:20:00,
2013-07-14 21:25:00,69.3,61.4,30.33,NE,45,0.0,0.0,76,0.00,,CLR,0.00,VWS V14.01,2013-07-15 01:25:00,
2013-07-14 21:30:00,68.7,61.2,30.36,NE,45,0.0,0.0,77,0.00,,CLR,0.00,VWS V14.01,2013-07-15 01:30:00,
2013-07-14 21:35:00,68.5,61.4,30.36,NE,45,0.0,0.0,78,0.00,,CLR,0.00,VWS V14.01,2013-07-15 01:35:00,
2013-07-14 21:40:00,68.5,61.8,30.36,South,180,1.3,2.2,79,0.00,,CLR,0.00,VWS V14.01,2013-07-15 01:40:00,
2013-07-14 21:45:00,68.2,62.1,30.36,South,180,1.3,1.3,81,0.00,,CLR,0.00,VWS V14.01,2013-07-15 01:45:00,
2013-07-14 21:50:00,68.0,63.0,30.36,ESE,112,0.0,1.6,84,0.00,,CLR,0.00,VWS V14.01,2013-07-15 01:50:00,
2013-07-14 21:55:00,67.6,62.3,30.36,NE,45,0.0,0.9,83,0.00,,CLR,0.00,VWS V14.01,2013-07-15 01:55:00,
2013-07-14 22:00:00,67.5,62.1,30.36,NE,45,0.0,0.0,83,0.00,,CLR,0.00,VWS V14.01,2013-07-15 02:00:00,
2013-07-14 22:05:00,67.3,62.0,30.36,NE,45,0.0,0.0,83,0.00,,CLR,0.00,VWS V14.01,2013-07-15 02:05:00,
2013-07-14 22:10:00,67.1,62.1,30.36,NE,45,0.0,0.0,84,0.00,,CLR,0.00,VWS V14.01,2013-07-15 02:10:00,
2013-07-14 22:15:00,66.7,61.8,30.36,NE,45,0.0,0.0,84,0.00,,CLR,0.00,VWS V14.01,2013-07-15 02:15:00,
2013-07-14 22:20:00,66.7,61.4,30.36,East,90,0.0,0.0,83,0.00,,CLR,0.00,VWS V14.01,2013-07-15 02:20:00,
2013-07-14 22:25:00,66.9,62.6,30.36,East,90,0.0,0.0,86,0.00,,CLR,0.00,VWS V14.01,2013-07-15 02:25:00,
2013-07-14 22:30:00,66.4,62.1,30.36,East,90,0.0,0.0,86,0.00,,CLR,0.00,VWS V14.01,2013-07-15 02:30:00,
2013-07-14 22:35:00,66.2,61.9,30.36,East,90,0.0,0.0,86,0.00,,CLR,0.00,VWS V14.01,2013-07-15 02:35:00,
2013-07-14 22:40:00,66.0,62.4,30.36,NE,45,0.0,0.0,88,0.00,,CLR,0.00,VWS V14.01,2013-07-15 02:40:00,
2013-07-14 22:45:00,65.8,62.2,30.36,NE,45,0.0,0.0,88,0.00,,CLR,0.00,VWS V14.01,2013-07-15 02:45:00,
2013-07-14 22:50:00,65.8,62.2,30.36,NE,45,0.0,0.0,88,0.00,,CLR,0.00,VWS V14.01,2013-07-15 02:50:00,
2013-07-14 22:55:00,65.7,62.0,30.36,East,90,0.0,0.0,88,0.00,,CLR,0.00,VWS V14.01,2013-07-15 02:55:00,
2013-07-14 23:00:00,65.7,62.3,30.36,NE,45,0.0,0.0,89,0.00,,CLR,0.00,VWS V14.01,2013-07-15 03:00:00,
2013-07-14 23:05:00,65.5,62.2,30.36,NE,45,0.0,0.0,89,0.00,,CLR,0.00,VWS V14.01,2013-07-15 03:05:00,
2013-07-14 23:10:00,65.3,62.0,30.36,East,90,0.0,0.0,89,0.00,,CLR,0.00,VWS V14.01,2013-07-15 03:10:00,
2013-07-14 23:15:00,65.3,62.0,30.36,East,90,0.0,0.0,89,0.00,,CLR,0.00,VWS V14.01,2013-07-15 03:15:00,
2013-07-14 23:20:00,64.8,61.5,30.36,East,90,0.0,0.0,89,0.00,,CLR,0.00,VWS V14.01,2013-07-15 03:20:00,
2013-07-14 23:25:00,64.9,61.9,30.36,East,90,0.0,0.0,90,0.00,,CLR,0.00,VWS V14.01,2013-07-15 03:25:00,
2013-07-14 23:30:00,65.5,62.5,30.36,South,180,0.0,2.7,90,0.00,,CLR,0.00,VWS V14.01,2013-07-15 03:30:00,
2013-07-14 23:35:00,64.9,62.2,30.36,SW,225,0.0,0.0,91,0.00,,CLR,0.00,VWS V14.01,2013-07-15 03:35:00,
2013-07-14 23:40:00,64.8,62.1,30.36,SW,225,0.0,0.0,91,0.00,,CLR,0.00,VWS V14.01,2013-07-15 03:40:00,
2013-07-14 23:45:00,64.6,61.9,30.36,SW,225,0.0,0.0,91,0.00,,CLR,0.00,VWS V14.01,2013-07-15 03:45:00,
2013-07-14 23:50:00,64.4,61.7,30.36,SW,225,0.0,0.0,91,0.00,,CLR,0.00,VWS V14.01,2013-07-15 03:50:00,
2013-07-14 23:55:00,64.2,61.8,30.36,SW,225,0.0,0.0,92,0.00,,CLR,0.00,VWS V14.01,2013-07-15 03:55:00,